Lexington Weather

Lexington, Massachusetts, USA

71°F
9/22/2021 2:05pm 
  • Lexington Conditions: Light rain, Mist, Overcast
  • Temperature: 71.4°F / 21.9°CColder 3.4°F than last hour.
  • Dew Point: 68.9°FIncreased 0.7°Fsince last hour.
  • Relative Humidity: 92%Increased 12.0% since last hour.
  • Wind: Wind from WSW WSW 3 mph, 10-min avg: 3 mph, gust: 11 mph
  • Barometer: 30.09 in Steady
  • Visibility: 2 miles
  • Rain Today: 0.00 in
  •   

Regional Weather Roundup
for Boston / Norton, MA

        
000
ASUS41 KBOX 161705
RWRBOX

REGIONAL WEATHER ROUNDUP
NATIONAL WEATHER SERVICE BOSTON/NORTON MA
100 PM EDT THU SEP 16 2021

NOTE:  "FAIR" INDICATES FEW OR NO CLOUDS BELOW 12,000 FEET WITH NO 
SIGNIFICANT WEATHER AND/OR OBSTRUCTIONS TO VISIBILITY.

MAZALL-161800-
EASTERN MASSACHUSETTS
  
CITY           SKY/WX    TMP DP  RH WIND       PRES   REMARKS
BOSTON         CLOUDY    71  65  81 NE13      30.28S                  
BEVERLY        CLOUDY    68  63  84 NE10      30.28R                  
LAWRENCE       CLOUDY    68  59  73 NE13      30.31R                  
BEDFORD        CLOUDY    70  64  81 NE12      30.27R                  
BLUE HILL      NOT AVBL                                               
NORWOOD        PTSUNNY   73  64  73 E8        30.27R                  
MARSHFIELD     PTSUNNY   68  64  88 VRB3      30.27R                  
PLYMOUTH       CLOUDY    68  65  90 E6        30.26S                  
TAUNTON        CLOUDY    70  65  84 CALM      30.27R                  
NEW BEDFORD    PTSUNNY   71  66  84 NE8       30.26R                  
$$

MAZALL-161800-
CAPE COD AND THE ISLANDS
  
CITY           SKY/WX    TMP DP  RH WIND       PRES   REMARKS
FALMOUTH       PTSUNNY   72  66  83 NE12      30.26R                  
HYANNIS        CLOUDY    74  67  78 NE8       30.24R                  
CHATHAM        CLOUDY    69  65  86 E10       30.26R                  
PROVINCETOWN   PTSUNNY   69  66  90 E3        30.27R                  
NANTUCKET      CLOUDY    72  68  87 E9        30.24R                  
MARTHAS VNYRD  CLOUDY    70  66  87 E15       30.25R                  
$$
 
MAZALL-161800-
CENTRAL AND WESTERN MASSACHUSETTS
  
CITY           SKY/WX    TMP DP  RH WIND       PRES   REMARKS
WORCESTER      CLOUDY    68  61  78 E8        30.29R                  
FITCHBURG      CLOUDY    72  61  68 NE9       30.28S                  
ORANGE         PTSUNNY   73  60  63 NE8       30.28R                  
SPRINGFIELD    NOT AVBL                                               
WESTFIELD      PTSUNNY   73  65  75 NE5       30.26R                  
NORTH ADAMS    NOT AVBL                                               
PITTSFIELD     CLOUDY    69  59  70 E3        30.27S                  
$$
 
RIZALL-161800-
RHODE ISLAND
  
CITY           SKY/WX    TMP DP  RH WIND       PRES   REMARKS
PROVIDENCE     LGT RAIN  69  67  93 NE8       30.27R                  
NEWPORT        PTSUNNY   70  65  84 NE8       30.26R                  
BLOCK ISLAND   CLOUDY    69  65  86 E12       30.25S                  
SMITHFIELD     PTSUNNY   68  66  93 NE7       30.28S                  
WESTERLY       PTSUNNY   70  66  87 E13       30.24S                  
$$
 
CTZALL-161800-
CONNECTICUT
  
CITY           SKY/WX    TMP DP  RH WIND       PRES   REMARKS
BRADLEY INTL   PTSUNNY   74  64  71 NE7       30.25R                  
HARTFORD       CLOUDY    73  64  73 NE5       30.25R                  
BRIDGEPORT     LGT RAIN  72  66  81 NE9       30.24R                  
DANBURY        CLOUDY    73  63  70 E6        30.26S                  
GROTON         CLOUDY    72  65  78 E13       30.23S                  
NEW HAVEN      CLOUDY    73  68  84 NE5       30.24S                  
CHESTER        PTSUNNY   70  68  94 NE5       30.26S                  
MERIDEN        CLOUDY    74  64  71 NE5       30.25R                  
WILLIMANTIC    CLOUDY    70  64  81 E8        30.26R                  
OXFORD         CLOUDY    70  64  81 VRB7      30.27R                  
$$

MEZ002-015-021-024-NHZ003-005-008-011-012-014-VTZ005-008-161800-
NORTHERN NEW ENGLAND
  
CITY           SKY/WX    TMP DP  RH WIND       PRES   REMARKS
PORTLAND ME    PTSUNNY   68  56  65 E9        30.30F                  
BANGOR ME      PTSUNNY   68  54  60 E3        30.31S                  
CONCORD NH     CLOUDY    71  58  63 VRB3      30.29                   
MANCHESTER NH  CLOUDY    68  60  75 E9        30.28R                  
NASHUA NH      CLOUDY    68  65  90 E9G17     30.30R                  
PORTSMOUTH NH  CLOUDY    66  53  61 E9        30.31R                  
JAFFREY NH     CLOUDY    70  63  78 CALM      30.30R                  
KEENE NH       CLOUDY    71  61  70 VRB5      30.28R                  
BURLINGTON VT  MOSUNNY   70  51  51 CALM      30.28F                  
MT. WASHINGTON PTSUNNY   50  45  81 SW2         N/A                   
$$

NYZ052-076-161800-
EASTERN NEW YORK
  
CITY           SKY/WX    TMP DP  RH WIND       PRES   REMARKS
ALBANY         MOSUNNY   68  59  73 VRB3      30.27F                  
NEW YORK CITY  PTSUNNY   77  62  59 NE14      30.22S                  
$$
 
ANZALL-161800-
MARINE OBSERVATIONS
  
STATION/POSITION TIME  TEMP    WIND        PRES    VSBY  WAVE
                       AIR SEA DIR/SP/G                  HT/PER
                 (UTC) (F)     (DEG/KT/KT) (MB)    (MI)  (FT/S)
BOSTON BUOY      1640      67   70/  6/  6 1025.6R
BUZZARDS BAY     1600           60/ 14/ 15 1025.1R
NANTUCKET SOUND  1640   69 72   70/ 16/ 19 1024.4R
MASS BAY-STELLWA 1604   66      60/  8/  8 1024.6R  1 7/8  1/ 5
ISLE OF SHOALS   1600   64      40/ 19/ 22 1024.7R
S OF BLOCK IS    1626      69                N/A           4/ 4
$$

......................KEY.........................
  SKY/WX - SKY CONDITION/PRESENT WEATHER
  TMP    - TEMPERATURE IN FAHRENHEIT
  DWPT   - DEWPOINT IN FAHRENHEIT
  RH     - RELATIVE HUMIDITY IN PERCENT
  WIND   - DIRECTION AND SPEED IN MPH
  PRES   - MEAN SEA LEVEL PRESSURE IN INCHES OF HG
  WCI    - WIND CHILL INDEX
  VSB    - VISIBILITY IN MILES
  HX     - HEAT INDEX
  TC     - TEMPERATURE IN CELSIUS
  VRB    - VARIABLE WIND DIRECTION
  N/A    - NOT AVAILABLE
  
      

Other recent Regional Weather Roundups

Wed Sep 22, 1:04pm

Wed Sep 22, 12:05pm

Wed Sep 22, 11:04am

Wed Sep 22, 10:04am

Wed Sep 22, 9:04am

Wed Sep 22, 8:04am

Wed Sep 22, 7:04am

Wed Sep 22, 6:04am

Wed Sep 22, 5:04am

Wed Sep 22, 4:04am

Wed Sep 22, 3:04am

Wed Sep 22, 2:04am

Wed Sep 22, 1:04am

Wed Sep 22, 12:04am

Tue Sep 21, 11:04pm

Tue Sep 21, 10:04pm

Tue Sep 21, 9:04pm

Tue Sep 21, 8:04pm

Tue Sep 21, 7:04pm

Tue Sep 21, 6:04pm

Tue Sep 21, 5:04pm

Tue Sep 21, 4:04pm

Tue Sep 21, 3:04pm

Tue Sep 21, 2:04pm

Tue Sep 21, 1:04pm

Tue Sep 21, 12:04pm

Tue Sep 21, 11:04am

Tue Sep 21, 10:04am

Tue Sep 21, 9:04am

Tue Sep 21, 8:04am

Tue Sep 21, 7:04am

Tue Sep 21, 6:04am

Tue Sep 21, 5:04am

Tue Sep 21, 4:04am

Tue Sep 21, 3:04am

Tue Sep 21, 2:04am

Tue Sep 21, 1:04am

Tue Sep 21, 12:04am

Mon Sep 20, 11:04pm

Mon Sep 20, 10:04pm

Mon Sep 20, 9:04pm

Mon Sep 20, 8:04pm

Mon Sep 20, 7:04pm

Mon Sep 20, 6:04pm

Mon Sep 20, 5:04pm

Mon Sep 20, 4:04pm

Mon Sep 20, 3:04pm

Mon Sep 20, 2:04pm

Mon Sep 20, 1:04pm

Mon Sep 20, 12:04pm

Mon Sep 20, 11:04am

Mon Sep 20, 10:04am

Mon Sep 20, 9:04am

Mon Sep 20, 7:04am

Mon Sep 20, 6:04am

Mon Sep 20, 5:04am

Mon Sep 20, 4:04am

Mon Sep 20, 3:04am

Mon Sep 20, 2:04am

Mon Sep 20, 1:04am

Mon Sep 20, 12:04am

Sun Sep 19, 11:04pm

Sun Sep 19, 10:04pm

Sun Sep 19, 9:04pm

Sun Sep 19, 8:04pm

Sun Sep 19, 7:04pm

Sun Sep 19, 6:04pm

Sun Sep 19, 5:04pm

Sun Sep 19, 4:04pm

Sun Sep 19, 3:04pm

Sun Sep 19, 2:05pm

Sun Sep 19, 1:04pm

Sun Sep 19, 12:04pm

Sun Sep 19, 11:04am

Sun Sep 19, 10:05am

Sun Sep 19, 9:04am

Sun Sep 19, 8:04am

Sun Sep 19, 7:04am

Sun Sep 19, 6:04am

Sun Sep 19, 5:04am

Sun Sep 19, 4:04am

Sun Sep 19, 3:04am

Sun Sep 19, 2:04am

Sun Sep 19, 1:04am

Sun Sep 19, 12:04am

Sat Sep 18, 11:05pm

Sat Sep 18, 10:04pm

Sat Sep 18, 9:04pm

Sat Sep 18, 8:04pm

Sat Sep 18, 7:04pm

Sat Sep 18, 6:04pm

Sat Sep 18, 5:04pm

Sat Sep 18, 4:04pm

Sat Sep 18, 3:04pm

Sat Sep 18, 2:04pm

Sat Sep 18, 1:04pm

Sat Sep 18, 12:04pm

Sat Sep 18, 11:04am

Sat Sep 18, 10:04am

Sat Sep 18, 9:04am

Sat Sep 18, 8:04am

Sat Sep 18, 7:04am

Sat Sep 18, 6:04am

Sat Sep 18, 5:04am

Sat Sep 18, 4:04am

Sat Sep 18, 3:04am

Sat Sep 18, 2:04am

Sat Sep 18, 1:04am

Sat Sep 18, 12:04am

Fri Sep 17, 11:04pm

Fri Sep 17, 10:04pm

Fri Sep 17, 9:04pm

Fri Sep 17, 8:04pm

Fri Sep 17, 7:04pm

Fri Sep 17, 6:04pm

Fri Sep 17, 5:04pm

Fri Sep 17, 4:04pm

Fri Sep 17, 3:04pm

Fri Sep 17, 2:04pm

Fri Sep 17, 1:04pm

Fri Sep 17, 12:05pm

Fri Sep 17, 11:04am

Fri Sep 17, 10:04am

Fri Sep 17, 9:04am

Fri Sep 17, 8:04am

Fri Sep 17, 7:04am

Fri Sep 17, 6:04am

Fri Sep 17, 5:04am

Fri Sep 17, 4:04am

Fri Sep 17, 3:04am

Fri Sep 17, 2:04am

Fri Sep 17, 1:04am

Fri Sep 17, 12:04am

Thu Sep 16, 11:04pm

Thu Sep 16, 10:04pm

Thu Sep 16, 9:04pm

Thu Sep 16, 8:04pm

Thu Sep 16, 7:04pm

Thu Sep 16, 6:04pm

Thu Sep 16, 5:04pm

Thu Sep 16, 4:04pm

Thu Sep 16, 3:04pm

Thu Sep 16, 2:04pm

Thu Sep 16, 12:04pm

Thu Sep 16, 11:05am

Thu Sep 16, 10:05am

Thu Sep 16, 9:04am

Thu Sep 16, 8:04am

Thu Sep 16, 7:04am

Thu Sep 16, 6:04am

Thu Sep 16, 5:04am

Thu Sep 16, 4:04am

Thu Sep 16, 3:04am

Thu Sep 16, 2:04am

Thu Sep 16, 1:04am

Thu Sep 16, 12:04am

Wed Sep 15, 11:04pm

Wed Sep 15, 10:04pm

Wed Sep 15, 9:04pm

Wed Sep 15, 8:04pm

Wed Sep 15, 7:04pm

Wed Sep 15, 6:04pm

Wed Sep 15, 5:05pm

Wed Sep 15, 4:04pm

Wed Sep 15, 3:04pm

Wed Sep 15, 2:04pm

Meta data:

ID: 0299e44a-0b96-4c50-b397-a17dab3fa14d
Link: https://api.weather.gov/products/0299e44a-0b96-4c50-b397-a17dab3fa14d